Time,TemperatureF,DewpointF,PressureIn,WindDirection,WindDirectionDegrees,WindSpeedMPH,WindSpeedGustMPH,Humidity,HourlyPrecipIn,Conditions,Clouds,dailyrainin,SoftwareType,DateUTC
2014-07-25 00:00:00,69.0,55.0,-100.00,West,267,1.0,2.0,62,0.00,,,-99.99,,2014-07-25 04:00:00,
2014-07-25 01:00:00,67.0,55.0,-100.00,West,276,2.0,2.0,66,0.00,,,-99.99,,2014-07-25 05:00:00,
2014-07-25 01:43:00,67.0,55.0,-100.00,West,276,2.0,2.0,66,0.00,,,-99.99,,2014-07-25 05:43:00,
2014-07-25 01:53:00,67.0,55.0,-100.00,West,276,2.0,2.0,66,0.00,,,-99.99,,2014-07-25 05:53:00,
2014-07-25 02:00:00,66.0,55.0,-100.00,WSW,238,1.0,2.0,67,0.00,,,-99.99,,2014-07-25 06:00:00,
2014-07-25 02:42:00,66.0,55.0,-100.00,WSW,238,1.0,2.0,67,0.00,,,-99.99,,2014-07-25 06:42:00,
2014-07-25 02:53:00,66.0,55.0,-100.00,WSW,238,1.0,2.0,67,0.00,,,-99.99,,2014-07-25 06:53:00,
2014-07-25 03:53:00,65.0,54.0,-100.00,WSW,256,1.0,1.0,69,0.00,,,-99.99,,2014-07-25 07:53:00,
2014-07-25 04:00:00,65.0,55.0,-100.00,West,261,1.0,1.0,71,0.00,,,-99.99,,2014-07-25 08:00:00,
2014-07-25 04:42:00,65.0,55.0,-100.00,West,261,1.0,1.0,71,0.00,,,-99.99,,2014-07-25 08:42:00,
2014-07-25 04:52:00,65.0,55.0,-100.00,West,261,1.0,1.0,71,0.00,,,-99.99,,2014-07-25 08:52:00,
2014-07-25 05:00:00,63.0,55.0,-100.00,West,262,1.0,1.0,76,0.00,,,-99.99,,2014-07-25 09:00:00,
2014-07-25 05:43:00,63.0,55.0,-100.00,West,262,1.0,1.0,76,0.00,,,-99.99,,2014-07-25 09:43:00,
2014-07-25 07:00:00,66.0,57.0,-100.00,SSW,207,1.0,1.0,74,0.00,,,-99.99,,2014-07-25 11:00:00,
2014-07-25 07:43:00,66.0,57.0,-100.00,SSW,207,1.0,1.0,74,0.00,,,-99.99,,2014-07-25 11:43:00,
2014-07-25 09:42:00,73.0,60.0,-100.00,NNE,32,2.0,5.0,63,0.00,,,-99.99,,2014-07-25 13:42:00,
2014-07-25 10:43:00,75.0,55.0,-100.00,East,91,2.0,7.0,50,0.00,,,-99.99,,2014-07-25 14:43:00,
2014-07-25 10:52:00,75.0,55.0,-100.00,East,91,2.0,7.0,50,0.00,,,-99.99,,2014-07-25 14:52:00,
2014-07-25 11:00:00,78.0,56.0,-100.00,ENE,68,1.0,9.0,47,0.00,,,-99.99,,2014-07-25 15:00:00,
2014-07-25 11:44:00,78.0,56.0,-100.00,ENE,68,1.0,9.0,47,0.00,,,-99.99,,2014-07-25 15:44:00,
2014-07-25 11:54:00,78.0,56.0,-100.00,ENE,68,1.0,9.0,47,0.00,,,-99.99,,2014-07-25 15:54:00,
2014-07-25 12:00:00,78.0,53.0,-100.00,NNW,345,3.0,8.0,41,0.00,,,-99.99,,2014-07-25 16:00:00,
2014-07-25 12:43:00,78.0,53.0,-100.00,NNW,345,3.0,8.0,41,0.00,,,-99.99,,2014-07-25 16:43:00,
2014-07-25 13:00:00,77.0,53.0,-100.00,WNW,284,3.0,5.0,43,0.00,,,-99.99,,2014-07-25 17:00:00,
2014-07-25 13:44:00,77.0,53.0,-100.00,WNW,284,3.0,5.0,43,0.00,,,-99.99,,2014-07-25 17:44:00,
2014-07-25 13:54:00,77.0,53.0,-100.00,WNW,284,3.0,5.0,43,0.00,,,-99.99,,2014-07-25 17:54:00,
2014-07-25 14:43:00,80.0,52.0,-100.00,SW,220,1.0,5.0,38,0.00,,,-99.99,,2014-07-25 18:43:00,
2014-07-25 14:53:00,80.0,52.0,-100.00,SW,220,1.0,5.0,38,0.00,,,-99.99,,2014-07-25 18:53:00,
2014-07-25 15:43:00,81.0,51.0,-100.00,ESE,113,2.0,6.0,35,0.00,,,-99.99,,2014-07-25 19:43:00,
2014-07-25 15:53:00,81.0,51.0,-100.00,ESE,113,2.0,6.0,35,0.00,,,-99.99,,2014-07-25 19:53:00,
2014-07-25 16:00:00,82.0,59.0,-100.00,NNW,337,1.0,5.0,46,0.00,,,-99.99,,2014-07-25 20:00:00,
2014-07-25 17:00:00,80.0,59.0,-100.00,ENE,68,2.0,7.0,50,0.00,,,-99.99,,2014-07-25 21:00:00,
2014-07-25 17:44:00,80.0,59.0,-100.00,ENE,68,2.0,7.0,50,0.00,,,-99.99,,2014-07-25 21:44:00,
2014-07-25 18:00:00,77.0,58.0,-100.00,WSW,256,1.0,5.0,51,0.00,,,-99.99,,2014-07-25 22:00:00,
2014-07-25 18:43:00,77.0,58.0,-100.00,WSW,256,1.0,5.0,51,0.00,,,-99.99,,2014-07-25 22:43:00,
2014-07-25 19:42:00,73.0,57.0,-100.00,NW,311,2.0,6.0,57,0.00,,,-99.99,,2014-07-25 23:42:00,
2014-07-25 19:53:00,73.0,57.0,-100.00,NW,311,2.0,6.0,57,0.00,,,-99.99,,2014-07-25 23:53:00,